Location: *
(41.0833°N, 73.4167°W)
Time: 02:16:49
(UTC+00:00)

Cosmos 468 Rocket - Pass Details

Date: 22 October 2019
Orbit: 745 x 779 km, 74.0° (Epoch: 13 November)

Event Time Altitude Azimuth Distance (km) Brightness Sun altitude
Rises 00:19:10 0° 205° (SSW) 3,241 7.4 -26.1°
Reaches altitude 10° 00:21:34 10° 208° (SSW) 2,314 6.7 -26.5°
Maximum altitude 00:26:48 67° 291° (WNW) 833 4.2 -27.5°
Enters shadow 00:29:10 33° 4° (N) 1,288 5.1 -27.9°
